Regional Weather Roundup
Issued by NWS

Home | Current Version | Previous Version | Text Only | Print | Product List | Glossary Off
Versions: 1 2 3 4 5 6 7 8 9 10 11 12 13 14 15 16 17 18 19 20 21 22 23 24 25 26 27 28 29 30 31 32 33 34 35 36 37 38 39 40 41 42 43 44 45 46 47 48 49 50

000
ASUS44 KMEG 290010
RWRTN
TENNESSEE HOURLY STATE WEATHER ROUNDUP
NATIONAL WEATHER SERVICE MEMPHIS TN
700 PM CDT TUE JUL 28 2015

TNZ002-004-019-021-049-052-054-088>092-290100-
WEST TENNESSEE

CITY           SKY/WX    TMP DP  RH WIND       PRES   REMARKS
MEMPHIS INTL   MOSUNNY   93  74  53 SW7       29.93F HX 103
NWS MEMPHIS      N/A     94 N/A N/A MISG        N/A
JACKSON        SUNNY     92  78  63 SW6       29.94S HX 107
DYERSBURG        N/A    N/A N/A N/A MISG        N/A
PARIS          SUNNY     90  77  66 CALM      29.96R HX 102
LEXINGTON      SUNNY     91  77  62 SW3       29.95R HX 105
$$

TNZ008-025-027-028-033-062-065-066-290100-
NORTH MIDDLE TENNESSEE

CITY           SKY/WX    TMP DP  RH WIND       PRES   REMARKS
NASHVILLE      CLOUDY    77  74  90 CALM      29.97R
CLARKSVILLE    TSTM      76  74  93 SW20      29.99R VSB 1/2
SMYRNA         CLOUDY    77  75  93 CALM      29.97F
CROSSVILLE     CLOUDY    77  69  76 CALM      30.03F
$$

TNZ061-075-076-078-094-096-097-290100-
SOUTH MIDDLE TENNESSEE

CITY           SKY/WX    TMP DP  RH WIND       PRES   REMARKS
FAYETTEVILLE   CLEAR     79  72  78 CALM      29.99F
TULLAHOMA      CLEAR     79  72  78 CALM      30.00S
WINCHESTER     CLEAR     79  73  83 CALM      29.98F
MCMINNVILLE    CLEAR     81  75  83 NW3       29.99S
SHELBYVILLE    CLEAR     79  75  89 CALM      29.99S
$$

TNZ017-018-042-046-047-290100-
NORTHEAST TENNESSEE

CITY           SKY/WX    TMP DP  RH WIND       PRES   REMARKS
TRI CITIES     MOCLDY    77  69  76 CALM      30.00F
ELIZABETHTON   CLEAR     77  70  78 CALM      30.03R
$$

TNZ012-013-036-069-073-074-290100-
CENTRAL EAST TENNESSEE

CITY           SKY/WX    TMP DP  RH WIND       PRES   REMARKS
KNOXVILLE      MOCLDY    83  71  67 NW6       29.97S THUNDER
OAK RIDGE      MOCLDY    81  73  76 CALM      29.98S
GATLINBURG     CLEAR     81  72  74 CALM      29.97F
MORRISTOWN     CLEAR     81  73  78 CALM      30.00F
$$

TNZ083-085-099-290100-
SOUTHEAST TENNESSEE

CITY           SKY/WX    TMP DP  RH WIND       PRES   REMARKS
CHATTANOOGA    CLOUDY    85  74  69 E3        29.96F HX  92
$$

SKY/WX REPORTED AS FAIR MEANS FEW OR NO CLOUDS BELOW
12 THOUSAND FEET.




USA.gov is the U.S. government's official web portal to all federal, state and local government web resources and services.